TimeCST,TemperatureF,Dew PointF,Humidity,Sea Level PressureIn,VisibilityMPH,Wind Direction,Wind SpeedMPH,Gust SpeedMPH,PrecipitationIn,Events,Conditions,WindDirDegrees,DateUTC
12:52 AM,26.1,25.0,96,30.22,10.0,ESE,5.8,-,N/A,,Clear,120,2012-11-14 06:52:00
1:52 AM,27.0,26.1,96,30.21,10.0,ESE,5.8,-,N/A,,Clear,120,2012-11-14 07:52:00
2:52 AM,24.1,23.0,96,30.21,10.0,Calm,Calm,-,N/A,,Clear,0,2012-11-14 08:52:00
3:52 AM,25.0,23.0,92,30.20,10.0,ESE,5.8,-,N/A,,Clear,120,2012-11-14 09:52:00
4:52 AM,25.0,23.0,92,30.19,10.0,SE,5.8,-,N/A,,Clear,140,2012-11-14 10:52:00
5:52 AM,26.1,24.1,92,30.19,10.0,SSE,6.9,-,N/A,,Clear,150,2012-11-14 11:52:00
6:52 AM,24.1,23.0,96,30.19,10.0,SE,4.6,-,N/A,,Clear,130,2012-11-14 12:52:00
7:43 AM,24.8,21.2,86,30.11,1.8,SE,5.8,-,N/A,,Partly Cloudy,130,2012-11-14 13:43:00
7:45 AM,24.8,21.2,86,30.11,0.5,SE,5.8,-,N/A,Fog,Light Freezing Fog,130,2012-11-14 13:45:00
7:52 AM,26.1,25.0,96,30.18,0.2,ESE,3.5,-,N/A,Fog,Light Freezing Fog,120,2012-11-14 13:52:00
8:52 AM,28.0,28.0,100,30.18,0.8,SE,4.6,-,N/A,,Mist,130,2012-11-14 14:52:00
8:57 AM,28.4,28.4,100,30.11,2.5,SE,4.6,-,N/A,,Mostly Cloudy,140,2012-11-14 14:57:00
9:04 AM,28.4,28.4,100,30.11,9.0,SSE,4.6,-,N/A,,Scattered Clouds,150,2012-11-14 15:04:00
9:52 AM,30.9,30.0,96,30.17,10.0,SSE,6.9,-,N/A,,Clear,160,2012-11-14 15:52:00
10:52 AM,33.1,30.9,92,30.16,10.0,SSE,5.8,-,N/A,,Clear,150,2012-11-14 16:52:00
11:52 AM,36.0,32.0,86,30.14,10.0,SSW,4.6,-,N/A,,Clear,210,2012-11-14 17:52:00
12:52 PM,37.9,34.0,86,30.11,10.0,South,5.8,-,N/A,,Clear,180,2012-11-14 18:52:00
1:52 PM,41.0,36.0,82,30.08,10.0,South,4.6,-,N/A,,Clear,170,2012-11-14 19:52:00
2:52 PM,44.1,37.0,76,30.07,10.0,SSE,5.8,-,N/A,,Clear,150,2012-11-14 20:52:00
3:52 PM,43.0,36.0,76,30.07,10.0,South,3.5,-,N/A,,Clear,170,2012-11-14 21:52:00
4:52 PM,39.9,35.1,83,30.07,10.0,SE,3.5,-,N/A,,Partly Cloudy,140,2012-11-14 22:52:00
5:52 PM,37.0,34.0,89,30.07,10.0,SSE,5.8,-,N/A,,Overcast,150,2012-11-14 23:52:00
6:52 PM,37.0,33.1,86,30.09,10.0,SE,3.5,-,N/A,,Overcast,130,2012-11-15 00:52:00
7:52 PM,34.0,30.9,89,30.09,10.0,ESE,6.9,-,N/A,,Clear,120,2012-11-15 01:52:00
8:52 PM,33.1,32.0,96,30.11,10.0,ESE,3.5,-,N/A,,Clear,120,2012-11-15 02:52:00
9:52 PM,28.9,28.9,100,30.13,10.0,Calm,Calm,-,N/A,,Clear,0,2012-11-15 03:52:00
10:52 PM,28.9,28.0,96,30.14,10.0,NNW,5.8,-,N/A,,Clear,330,2012-11-15 04:52:00
11:52 PM,28.9,28.0,96,30.14,10.0,Calm,Calm,-,N/A,,Partly Cloudy,0,2012-11-15 05:52:00